sat.trackr.live / text

‹ back to catalog

STARLINK-6342

NORAD 56770 · 2023-078D

PAYLOAD ACTIVE UNKNOWN

§ Identity

Operator
Country
US
Launch date
2023-05-31
Launch site
AFWTR
Launch vehicle
Mass (kg)
RCS (m²)

Purposes: comms

External: N2YO · Heavens-Above · Gunter

§ Orbital elements

Epoch: 2026-09-20T22:00:03.000096Z

Period
95.59 min
Inclination
70.0008°
Eccentricity
0.0003452
Mean motion
15.06482233 rev/d
Perigee alt
544.6 km
Apogee alt
549.4 km
Semi-major
6,925.1 km
B*
3.7310e-3
RAAN
232.1292°
Arg perigee
309.8662°
Mean anomaly
11.6933°
Rev number
561

§ Raw data

STARLINK-63421 56770U 23078D   26263.91670139  .00055542  00000+0  37310-2 0  99962 56770  70.0008 232.1292 0003452 309.8662  11.6933 15.06482233  5610

JSON: /api/v1/satellites/56770 · /tle

For live sub-satellite position, see the globe view (requires WebGL).

§ Visibility from observer

Set your observer location to see the next 7 days of passes ≥ 10°. The values pass through the URL so the page stays shareable.

No JS? Fill the form by hand. The geolocation button needs JavaScript.